Wind_Speed
5 6 6 6 7 7 7 6 6 6 6 6 6 6 6 7 8 8 9 8 9 9 10 9 9 9 9 9 8 8 8 8 8 8 8 8 8 8 8 8 7 7 7
6 7 7 7 7 8 7 7 6 6 6 7 7 7 8 8 8 9 9 9 9 10 10 10 10 10 10 9 9 9 10 10 9 10 9 10 9 9 9 9 8 8 8
7 7 8 7 7 7 7 7 7 7 7 7 8 8 9 9 9 9 9 9 9 10 11 11 11 11 11 11 10 10 10 10 10 10 11 11 11 10 10 10 9 8 9
7 7 7 7 7 8 8 8 8 8 8 8 8 9 9 9 9 10 10 10 11 11 11 11 11 11 11 11 11 11 10 10 11 11 11 12 11 11 11 10 9 9 10
7 7 7 8 8 8 8 8 8 8 8 9 9 9 9 10 10 10 11 11 11 12 12 12 11 11 11 12 11 11 11 11 11 11 11 11 12 12 11 11 10 11 11
7 7 7 7 7 7 8 7 7 7 8 8 9 9 9 10 10 11 11 11 10 11 11 11 11 11 11 11 11 11 11 12 11 11 11 11 12 12 12 12 12 12 12
7 7 6 6 7 7 8 7 7 7 8 8 9 9 9 9 9 10 10 10 10 9 8 9 10 10 10 10 10 10 11 11 11 11 12 12 12 13 13 14 13 13 14
7 7 7 7 7 7 7 7 7 7 7 8 8 8 9 9 9 9 8 9 9 8 8 8 9 10 10 10 11 11 11 10 10 12 12 12 13 13 13 14 14 14 14
7 8 8 8 7 7 7 7 7 7 7 7 8 8 8 7 8 8 8 7 8 8 8 7 7 8 9 9 9 11 12 11 11 11 11 12 13 13 14 14 14 14 15
8 8 8 7 7 7 7 6 7 7 7 7 7 7 7 8 7 8 7 8 8 8 7 8 8 9 9 9 10 10 11 11 11 12 12 12 13 13 14 14 14 14 15
8 8 8 8 8 8 7 7 7 7 7 7 7 7 7 8 8 8 8 7 7 7 7 8 9 9 9 9 9 10 9 10 11 12 12 12 13 13 13 15 15 14 15
8 8 8 8 8 8 8 8 7 7 7 7 7 7 7 8 8 8 7 7 7 7 7 8 9 9 10 10 10 10 10 10 11 11 11 12 13 14 15 15 15 16 16
8 8 8 8 8 8 8 8 7 7 7 7 7 7 7 7 8 8 7 7 7 7 8 8 8 8 9 10 10 10 10 11 10 10 11 12 12 13 13 14 15 16 16
8 8 8 9 8 8 8 8 8 8 7 7 7 7 7 7 7 7 7 7 7 8 8 8 8 8 8 9 9 10 10 10 10 11 11 12 12 13 13 13 14 14 15
8 8 8 8 8 8 8 8 8 8 7 7 7 7 7 7 8 7 8 8 8 8 8 9 8 9 8 8 8 8 9 9 10 10 10 11 13 13 13 13 14 14 14
8 8 8 8 8 8 8 8 8 8 8 8 7 7 7 8 7 8 8 8 8 8 8 8 8 9 8 8 8 8 8 8 9 9 10 11 12 13 13 14 14 14 14
8 8 8 8 8 8 8 8 8 8 8 8 8 8 8 8 8 8 8 8 8 8 8 8 8 9 9 8 8 8 8 9 9 9 9 10 10 10 11 12 12 13 13
8 8 8 8 8 8 8 9 9 9 8 8 8 8 8 9 9 8 8 8 8 8 8 8 8 9 8 7 8 8 8 9 9 9 9 10 10 10 10 11 11 12 13
8 8 8 8 8 8 9 9 9 9 8 8 8 9 9 9 9 9 8 8 8 8 8 7 8 7 7 7 7 7 8 9 9 9 10 10 11 11 12 12 12 13 14
9 8 8 8 8 8 9 9 9 9 8 8 9 9 9 9 9 9 8 8 8 8 8 7 7 7 7 7 7 8 8 9 9 10 10 10 11 11 12 12 12 13 13
9 9 8 8 8 8 8 9 9 9 9 9 9 10 10 9 8 8 8 8 8 8 7 7 7 7 8 8 8 8 9 9 10 11 11 11 11 11 11 11 12 12 13
10 9 8 8 8 8 9 9 9 9 9 9 9 9 9 9 9 8 8 8 8 7 7 7 7 8 8 9 9 9 9 10 10 11 11 11 11 11 12 12 12 12 12
10 10 9 9 9 9 9 10 10 10 10 10 10 9 9 9 8 8 8 8 8 7 7 7 8 8 8 9 9 9 10 10 10 10 11 11 11 11 12 12 12 13 13
10 10 9 9 9 10 10 10 10 10 11 11 10 10 9 9 8 8 7 7 8 8 8 8 7 7 8 8 9 10 10 11 11 11 11 11 11 11 11 12 11 12 12
10 10 10 10 10 10 11 11 11 11 11 11 11 10 10 9 9 8 8 7 7 7 7 8 8 8 9 9 10 10 11 11 11 11 11 11 11 11 11 12 11 11 10
11 11 11 11 11 11 12 12 12 12 12 12 11 10 10 9 8 8 8 8 8 8 8 8 9 9 10 10 10 10 11 12 11 11 11 11 11 11 11 11 11 11 11
Wind_Direction
303 302 302 293 291 286 283 282 271 268 259 256 257 253 253 251 246 250 247 243 241 244 245 244 243 245 247 244 241 237 238 236 235 233 231 229 232 233 236 242 246 236 236
299 302 300 295 292 288 285 283 278 276 268 263 260 255 256 256 256 255 252 249 248 250 247 245 245 246 246 245 244 241 240 238 241 237 234 234 234 237 241 242 246 240 240
298 299 305 301 296 294 288 283 278 278 275 268 263 259 256 257 258 256 254 254 251 252 252 251 248 246 247 245 243 242 244 243 245 242 238 238 238 241 244 246 249 248 246
303 302 300 303 299 301 299 287 281 279 277 277 273 269 267 263 262 262 257 262 260 259 257 254 250 245 247 247 247 246 247 247 249 246 245 244 241 240 244 248 251 252 253
307 307 303 301 303 304 306 295 287 283 278 277 277 275 274 270 269 270 264 264 265 266 266 258 252 249 249 250 248 246 247 250 251 245 243 245 244 240 245 248 250 252 255
316 316 314 308 308 306 305 297 291 287 285 281 278 278 279 279 274 273 273 268 269 273 271 261 253 253 254 251 246 246 247 249 250 246 245 246 245 243 245 248 252 253 255
322 320 321 320 316 313 309 300 300 291 286 283 280 280 279 281 280 275 276 273 272 274 270 263 254 257 259 253 249 248 252 247 247 249 248 248 249 251 251 251 252 255 257
324 325 326 325 322 318 315 317 314 305 295 286 284 280 281 281 282 282 279 275 271 272 267 261 260 258 262 261 258 254 251 246 250 250 251 250 252 257 256 255 256 258 259
319 321 324 323 321 320 317 311 310 308 305 294 287 283 285 286 288 286 283 278 273 271 271 266 265 262 258 260 257 253 255 253 253 254 253 254 255 257 258 258 258 261 261
320 319 322 322 320 319 318 314 310 308 306 300 296 293 290 288 289 287 285 285 279 277 280 273 267 268 264 262 263 257 256 259 259 258 256 259 259 259 260 261 263 266 264
329 326 327 327 325 322 319 314 313 310 307 303 297 293 290 293 293 290 284 281 284 284 280 279 277 273 274 269 265 260 258 263 260 260 262 262 262 261 263 265 264 265 265
330 329 327 327 325 324 323 321 316 311 306 305 301 295 293 294 294 292 284 285 285 284 282 280 282 278 275 273 264 261 260 264 268 264 262 264 267 267 268 268 266 267 267
331 332 331 330 328 327 326 323 316 312 310 307 304 299 297 297 295 291 286 290 289 287 285 284 286 280 278 275 269 264 262 264 266 269 268 267 271 272 270 270 270 268 268
334 334 332 330 331 329 327 324 319 318 313 311 309 306 301 297 296 291 291 295 292 293 290 286 289 283 280 275 272 271 271 267 267 269 270 272 272 271 273 274 274 272 270
335 336 334 332 334 333 331 328 323 321 319 320 314 311 306 306 306 298 291 293 293 295 293 289 287 290 289 281 280 275 271 268 268 272 274 276 274 272 271 271 271 272 272
331 333 331 331 330 331 331 330 326 322 318 319 315 314 313 309 309 305 296 294 297 297 294 291 289 293 294 284 284 284 280 275 275 276 276 276 279 277 274 271 271 271 272
328 330 328 326 326 329 329 327 324 322 319 317 314 314 313 309 304 301 300 299 303 301 297 296 295 297 300 291 285 285 287 281 280 280 279 278 279 280 279 278 277 276 274
325 329 327 327 329 330 327 325 322 318 315 315 314 313 313 312 308 304 301 299 303 303 301 303 301 299 302 297 291 290 290 288 287 287 283 284 283 283 283 283 282 279 277
321 323 323 325 327 328 327 325 323 321 317 315 313 311 310 310 309 306 303 301 304 304 303 307 303 303 306 306 301 296 293 291 292 291 288 291 289 289 287 285 282 279 278
321 320 320 319 320 325 327 327 326 326 323 318 314 313 312 309 308 306 303 302 303 302 301 304 304 307 310 310 305 300 297 295 293 295 295 294 293 292 290 287 285 282 280
318 318 318 316 317 321 325 326 325 324 323 319 317 313 311 307 304 303 305 304 302 298 293 295 298 303 309 307 301 299 298 300 299 299 297 297 297 295 292 289 289 287 286
316 314 314 312 312 317 320 322 323 324 323 320 318 314 311 310 304 299 302 303 302 297 298 297 296 300 303 305 304 301 299 300 299 299 297 296 293 291 290 290 293 289 286
312 314 317 317 312 313 316 319 320 322 323 321 318 315 312 312 310 304 299 300 300 298 297 295 294 299 303 305 305 303 300 299 299 301 299 298 298 296 293 293 294 292 287
309 310 311 312 310 311 313 316 318 320 322 321 319 318 314 309 308 305 304 304 300 296 297 296 296 297 301 306 309 307 305 303 304 305 302 301 303 304 304 302 297 296 291
305 305 307 309 307 307 309 311 315 317 317 316 314 316 315 308 303 300 298 301 302 302 298 299 302 303 303 305 307 309 309 308 308 307 305 304 306 307 308 306 298 293 288
301 301 303 305 305 305 307 309 311 312 313 313 310 309 308 305 303 301 301 300 297 296 297 297 300 303 306 308 308 308 309 311 310 309 306 305 305 307 308 307 303 296 288
Height
5871 5870 5870 5870 5870 5869 5869 5869 5869 5868 5868 5868 5869 5869 5869 5869 5868 5869 5869 5869 5869 5870 5870 5871 5871 5872 5872 5873 5873 5874 5874 5875 5876 5877 5877 5878 5879 5880 5881 5882 5882 5883 5884
5870 5870 5869 5869 5869 5868 5868 5868 5868 5868 5867 5868 5867 5867 5867 5867 5867 5867 5867 5868 5868 5868 5868 5869 5870 5870 5871 5871 5872 5872 5873 5874 5875 5876 5876 5877 5878 5879 5880 5881 5881 5881 5882
5870 5869 5869 5868 5868 5867 5867 5866 5866 5866 5866 5866 5866 5866 5866 5866 5866 5866 5866 5866 5866 5866 5866 5867 5868 5868 5869 5869 5870 5871 5872 5872 5873 5874 5875 5875 5876 5877 5878 5879 5880 5880 5881
5869 5868 5868 5867 5867 5866 5866 5865 5865 5865 5865 5865 5865 5865 5865 5864 5864 5864 5864 5864 5864 5864 5864 5864 5865 5866 5867 5868 5868 5869 5870 5871 5872 5872 5873 5874 5875 5876 5877 5878 5878 5879 5880
5868 5867 5867 5866 5866 5865 5865 5864 5864 5864 5864 5864 5864 5863 5863 5863 5863 5863 5862 5863 5862 5861 5861 5861 5862 5864 5865 5866 5867 5867 5868 5869 5870 5870 5872 5873 5873 5874 5875 5876 5877 5877 5878
5867 5866 5866 5865 5865 5864 5863 5863 5863 5863 5863 5862 5862 5862 5862 5862 5861 5861 5861 5861 5861 5859 5857 5856 5859 5862 5863 5864 5865 5866 5866 5867 5868 5869 5870 5871 5872 5872 5873 5874 5875 5875 5876
5867 5866 5865 5864 5864 5863 5862 5862 5861 5861 5861 5861 5860 5860 5860 5860 5860 5860 5860 5859 5859 5858 5856 5856 5858 5860 5861 5861 5862 5863 5864 5865 5866 5867 5868 5869 5870 5870 5871 5872 5873 5873 5874
5866 5865 5864 5863 5863 5862 5862 5861 5861 5860 5860 5859 5859 5859 5859 5859 5859 5858 5858 5858 5858 5858 5857 5857 5858 5859 5860 5860 5860 5861 5862 5863 5864 5865 5866 5867 5867 5868 5869 5869 5870 5871 5872
5865 5865 5864 5863 5862 5861 5861 5860 5860 5859 5859 5858 5858 5858 5857 5857 5857 5857 5857 5857 5857 5857 5857 5857 5857 5858 5858 5859 5859 5859 5860 5861 5862 5863 5863 5864 5865 5866 5866 5867 5868 5868 5869
5864 5864 5863 5862 5861 5861 5860 5859 5859 5858 5858 5857 5857 5856 5856 5856 5856 5856 5856 5856 5856 5856 5856 5856 5856 5856 5857 5857 5857 5858 5858 5859 5860 5860 5861 5861 5862 5863 5864 5864 5865 5865 5866
5864 5863 5862 5861 5860 5860 5859 5858 5858 5857 5857 5856 5856 5855 5855 5855 5855 5854 5854 5854 5854 5854 5854 5854 5854 5855 5855 5855 5856 5856 5857 5857 5858 5858 5859 5859 5860 5860 5861 5861 5862 5862 5863
5863 5862 5861 5860 5860 5859 5858 5857 5857 5856 5856 5855 5855 5854 5854 5854 5854 5853 5853 5853 5853 5853 5853 5853 5853 5853 5853 5853 5854 5854 5854 5855 5856 5856 5856 5857 5857 5858 5858 5858 5859 5859 5860
5862 5861 5860 5860 5859 5858 5857 5856 5856 5855 5855 5854 5854 5853 5853 5853 5852 5852 5852 5852 5852 5852 5852 5851 5851 5851 5851 5852 5852 5852 5852 5853 5853 5853 5854 5854 5855 5855 5855 5855 5856 5856 5856
5862 5861 5860 5859 5858 5857 5857 5856 5855 5855 5854 5853 5853 5852 5852 5851 5851 5851 5851 5851 5851 5851 5850 5850 5850 5850 5849 5850 5850 5850 5850 5850 5851 5851 5851 5852 5852 5852 5852 5852 5852 5853 5853
5861 5860 5859 5859 5858 5857 5856 5855 5854 5854 5853 5852 5852 5851 5851 5850 5850 5850 5850 5849 5849 5849 5849 5849 5848 5848 5848 5848 5848 5848 5848 5848 5848 5849 5849 5849 5849 5849 5849 5849 5850 5850 5850
5861 5860 5859 5858 5857 5856 5855 5855 5854 5853 5852 5852 5851 5850 5850 5849 5849 5849 5848 5848 5848 5848 5847 5847 5847 5847 5847 5846 5846 5846 5847 5847 5847 5846 5846 5846 5846 5846 5846 5846 5846 5846 5847
5860 5859 5858 5857 5857 5856 5855 5854 5853 5852 5851 5851 5850 5849 5849 5848 5848 5848 5847 5847 5847 5846 5846 5846 5846 5845 5845 5845 5845 5845 5845 5845 5844 5844 5844 5844 5844 5844 5843 5843 5844 5844 5844
5859 5859 5858 5857 5856 5855 5854 5853 5852 5851 5851 5850 5849 5849 5848 5847 5847 5846 5846 5846 5846 5845 5845 5845 5844 5844 5844 5843 5843 5843 5843 5843 5843 5842 5842 5842 5842 5841 5841 5841 5841 5841 5841
5859 5858 5857 5856 5855 5854 5853 5852 5851 5851 5850 5849 5848 5848 5847 5846 5846 5845 5845 5845 5844 5844 5844 5844 5843 5843 5842 5842 5842 5841 5841 5841 5841 5840 5840 5840 5839 5839 5839 5838 5838 5838 5838
5858 5857 5856 5855 5855 5854 5852 5851 5850 5849 5849 5848 5847 5846 5846 5845 5844 5844 5844 5843 5843 5842 5842 5842 5842 5841 5841 5841 5840 5840 5840 5839 5839 5838 5838 5837 5837 5836 5836 5836 5835 5835 5835
5857 5856 5855 5854 5854 5853 5852 5851 5850 5849 5848 5847 5846 5845 5844 5844 5843 5843 5842 5842 5841 5841 5841 5840 5840 5840 5840 5839 5839 5838 5838 5837 5837 5836 5835 5835 5834 5834 5833 5833 5833 5832 5832
5856 5855 5854 5854 5853 5852 5851 5850 5849 5848 5847 5846 5845 5844 5843 5842 5841 5841 5841 5840 5840 5839 5839 5839 5838 5838 5838 5837 5837 5836 5836 5836 5835 5834 5833 5833 5832 5831 5831 5830 5830 5829 5829
5855 5854 5853 5852 5852 5851 5850 5849 5848 5847 5846 5844 5843 5842 5841 5840 5840 5840 5839 5839 5839 5838 5838 5837 5837 5836 5836 5835 5834 5834 5834 5833 5832 5832 5831 5830 5829 5829 5828 5827 5826 5826 5826
5853 5852 5852 5851 5850 5849 5848 5847 5847 5846 5844 5843 5842 5841 5840 5839 5838 5838 5838 5837 5837 5836 5836 5836 5835 5835 5834 5833 5832 5832 5831 5830 5830 5829 5828 5827 5827 5826 5825 5824 5823 5823 5822
5852 5851 5850 5849 5848 5848 5847 5846 5845 5844 5843 5841 5840 5839 5838 5837 5836 5836 5836 5835 5835 5835 5834 5834 5833 5833 5832 5831 5830 5830 5828 5828 5827 5826 5826 5825 5824 5823 5822 5822 5821 5820 5819
5850 5849 5848 5847 5847 5846 5845 5844 5843 5842 5841 5839 5838 5837 5836 5835 5835 5834 5833 5833 5833 5833 5832 5832 5831 5830 5830 5829 5828 5827 5826 5825 5824 5824 5823 5822 5821 5821 5820 5819 5818 5817 5816